• In Russia
  • List of Countries
  • For 7 days
  • Water Temperature
  • Satellite Maps
  • Weather Map
  • Weather Widgets
  • user-avatar
    Login

    Hourly Weather Al-Ahmadi

    Today, 21 August, Tuesday

    Time Temperature Precipitation Wind Pressure Humidity
    00:00 +40°C° 0 mm 7 mps 741 mmHg 12%
    01:00 +39°C° 0 mm 7 mps 741 mmHg 13%
    02:00 +39°C° 0 mm 7 mps 741 mmHg 15%
    03:00 +38°C° 0 mm 7 mps 741 mmHg 16%
    04:00 +38°C° 0 mm 7 mps 741 mmHg 16%
    05:00 +38°C° 0 mm 7 mps 741 mmHg 17%
    06:00 +38°C° 0 mm 7 mps 741 mmHg 18%
    07:00 +40°C° 0 mm 7 mps 742 mmHg 16%
    08:00 +43°C° 0 mm 8 mps 742 mmHg 14%
    09:00 +46°C° 0 mm 8 mps 742 mmHg 11%
    10:00 +48°C° 0 mm 8 mps 742 mmHg 10%
    11:00 +49°C° 0 mm 8 mps 742 mmHg 9%
    12:00 +51°C° 0 mm 7 mps 742 mmHg 7%
    13:00 +51°C° 0 mm 7 mps 741 mmHg 7%
    14:00 +52°C° 0 mm 6 mps 741 mmHg 6%
    15:00 +52°C° 0 mm 6 mps 740 mmHg 6%
    16:00 +50°C° 0 mm 5 mps 740 mmHg 7%
    17:00 +49°C° 0 mm 5 mps 740 mmHg 7%
    18:00 +48°C° 0 mm 4 mps 740 mmHg 7%
    19:00 +47°C° 0 mm 5 mps 740 mmHg 8%
    20:00 +46°C° 0 mm 6 mps 740 mmHg 8%
    21:00 +44°C° 0 mm 6 mps 740 mmHg 8%
    22:00 +44°C° 0 mm 7 mps 740 mmHg 9%
    23:00 +43°C° 0 mm 7 mps 740 mmHg 9%

    Tomorrow, 22 August, Wednesday

    Time Temperature Precipitation Wind Pressure Humidity
    00:00 +41°C° 0 mm 7 mps 741 mmHg 10%
    01:00 +41°C° 0 mm 7 mps 741 mmHg 11%
    02:00 +40°C° 0 mm 7 mps 741 mmHg 12%
    03:00 +39°C° 0 mm 8 mps 741 mmHg 13%
    04:00 +39°C° 0 mm 8 mps 741 mmHg 14%
    05:00 +39°C° 0 mm 7 mps 741 mmHg 15%
    06:00 +38°C° 0 mm 7 mps 741 mmHg 16%
    07:00 +40°C° 0 mm 7 mps 741 mmHg 14%
    08:00 +44°C° 0 mm 8 mps 742 mmHg 12%
    09:00 +46°C° 0 mm 8 mps 742 mmHg 11%
    10:00 +49°C° 0 mm 7 mps 742 mmHg 9%
    11:00 +50°C° 0 mm 7 mps 741 mmHg 7%
    12:00 +52°C° 0 mm 6 mps 741 mmHg 6%
    13:00 +53°C° 0 mm 6 mps 741 mmHg 5%
    14:00 +53°C° 0 mm 5 mps 740 mmHg 5%
    15:00 +53°C° 0 mm 5 mps 740 mmHg 4%
    16:00 +52°C° 0 mm 5 mps 739 mmHg 5%
    17:00 +50°C° 0 mm 5 mps 739 mmHg 5%
    18:00 +49°C° 0 mm 4 mps 739 mmHg 5%
    19:00 +47°C° 0 mm 5 mps 739 mmHg 5%
    20:00 +46°C° 0 mm 5 mps 740 mmHg 6%
    21:00 +45°C° 0 mm 6 mps 740 mmHg 6%
    22:00 +44°C° 0 mm 6 mps 740 mmHg 7%
    23:00 +42°C° 0 mm 6 mps 740 mmHg 8%

    Day after tomorrow, 23 August, Thursday

    Time Temperature Precipitation Wind Pressure Humidity
    00:00 +41°C° 0 mm 7 mps 740 mmHg 9%
    01:00 +41°C° 0 mm 7 mps 740 mmHg 11%
    02:00 +40°C° 0 mm 7 mps 740 mmHg 13%
    03:00 +40°C° 0 mm 7 mps 740 mmHg 14%
    04:00 +39°C° 0 mm 7 mps 740 mmHg 15%
    05:00 +39°C° 0 mm 7 mps 741 mmHg 16%
    06:00 +39°C° 0 mm 6 mps 741 mmHg 16%
    07:00 +41°C° 0 mm 7 mps 741 mmHg 14%
    08:00 +44°C° 0 mm 7 mps 741 mmHg 13%
    09:00 +46°C° 0 mm 8 mps 742 mmHg 11%
    10:00 +49°C° 0 mm 8 mps 741 mmHg 10%
    11:00 +51°C° 0 mm 8 mps 741 mmHg 8%
    12:00 +52°C° 0 mm 8 mps 741 mmHg 7%
    13:00 +52°C° 0 mm 8 mps 740 mmHg 7%
    14:00 +54°C° 0 mm 8 mps 740 mmHg 6%
    15:00 +54°C° 0 mm 9 mps 740 mmHg 6%
    16:00 +52°C° 0 mm 8 mps 740 mmHg 6%
    17:00 +51°C° 0 mm 8 mps 740 mmHg 7%
    18:00 +50°C° 0 mm 8 mps 740 mmHg 7%
    19:00 +47°C° 0 mm 7 mps 740 mmHg 8%
    20:00 +46°C° 0 mm 7 mps 741 mmHg 9%
    21:00 +45°C° 0 mm 7 mps 741 mmHg 10%
    22:00 +44°C° 0 mm 7 mps 741 mmHg 11%
    23:00 +42°C° 0 mm 6 mps 741 mmHg 12%

    24 August, Friday

    Time Temperature Precipitation Wind Pressure Humidity
    00:00 +42°C° 0 mm 6 mps 741 mmHg 12%
    01:00 +41°C° 0 mm 6 mps 741 mmHg 13%
    02:00 +40°C° 0 mm 6 mps 741 mmHg 14%
    03:00 +40°C° 0 mm 5 mps 740 mmHg 15%
    04:00 +39°C° 0 mm 5 mps 741 mmHg 15%
    05:00 +39°C° 0 mm 5 mps 741 mmHg 15%
    06:00 +38°C° 0 mm 4 mps 741 mmHg 15%
    07:00 +41°C° 0 mm 5 mps 742 mmHg 13%
    08:00 +45°C° 0 mm 6 mps 742 mmHg 12%
    09:00 +47°C° 0 mm 7 mps 743 mmHg 10%
    10:00 +50°C° 0 mm 7 mps 742 mmHg 9%
    11:00 +51°C° 0 mm 8 mps 742 mmHg 8%
    12:00 +54°C° 0 mm 8 mps 742 mmHg 8%
    13:00 +54°C° 0 mm 8 mps 741 mmHg 7%
    14:00 +54°C° 0 mm 8 mps 741 mmHg 7%
    15:00 +54°C° 0 mm 8 mps 740 mmHg 7%
    16:00 +52°C° 0 mm 8 mps 740 mmHg 7%
    17:00 +51°C° 0 mm 7 mps 740 mmHg 8%
    18:00 +49°C° 0 mm 6 mps 740 mmHg 8%
    19:00 +47°C° 0 mm 6 mps 740 mmHg 9%
    20:00 +46°C° 0 mm 6 mps 741 mmHg 10%
    21:00 +45°C° 0 mm 5 mps 741 mmHg 11%
    22:00 +43°C° 0 mm 5 mps 741 mmHg 11%
    23:00 +42°C° 0 mm 5 mps 741 mmHg 12%

    25 August, Saturday

    Time Temperature Precipitation Wind Pressure Humidity
    00:00 +41°C° 0 mm 5 mps 741 mmHg 12%
    01:00 +41°C° 0 mm 5 mps 740 mmHg 13%
    02:00 +40°C° 0 mm 5 mps 740 mmHg 13%
    03:00 +38°C° 0 mm 4 mps 740 mmHg 14%
    04:00 +39°C° 0 mm 5 mps 740 mmHg 14%
    05:00 +37°C° 0 mm 5 mps 741 mmHg 14%
    06:00 +37°C° 0 mm 5 mps 741 mmHg 14%
    07:00 +40°C° 0 mm 5 mps 741 mmHg 12%
    08:00 +43°C° 0 mm 5 mps 742 mmHg 11%
    09:00 +46°C° 0 mm 5 mps 742 mmHg 9%
    10:00 +47°C° 0 mm 5 mps 742 mmHg 9%
    11:00 +49°C° 0 mm 4 mps 741 mmHg 8%
    12:00 +50°C° 0 mm 4 mps 741 mmHg 8%
    13:00 +50°C° 0 mm 4 mps 740 mmHg 7%
    14:00 +51°C° 0 mm 4 mps 740 mmHg 6%
    15:00 +51°C° 0 mm 4 mps 739 mmHg 5%
    16:00 +50°C° 0 mm 4 mps 739 mmHg 5%
    17:00 +48°C° 0 mm 3 mps 739 mmHg 5%
    18:00 +47°C° 0 mm 3 mps 739 mmHg 5%
    19:00 +45°C° 0 mm 4 mps 739 mmHg 6%
    20:00 +44°C° 0 mm 4 mps 739 mmHg 6%
    21:00 +43°C° 0 mm 4 mps 740 mmHg 7%
    22:00 +42°C° 0 mm 5 mps 740 mmHg 7%
    23:00 +42°C° 0 mm 5 mps 739 mmHg 8%

    26 August, Sunday

    Time Temperature Precipitation Wind Pressure Humidity
    00:00 +42°C° 0 mm 6 mps 739 mmHg 9%
    01:00 +41°C° 0 mm 6 mps 739 mmHg 9%
    02:00 +41°C° 0 mm 6 mps 739 mmHg 9%
    03:00 +40°C° 0 mm 7 mps 739 mmHg 9%
    04:00 +40°C° 0 mm 6 mps 739 mmHg 10%
    05:00 +39°C° 0 mm 6 mps 739 mmHg 11%
    06:00 +39°C° 0 mm 6 mps 740 mmHg 11%
    07:00 +41°C° 0 mm 6 mps 740 mmHg 10%
    08:00 +44°C° 0 mm 6 mps 740 mmHg 10%
    09:00 +46°C° 0 mm 6 mps 740 mmHg 9%
    10:00 +48°C° 0 mm 5 mps 740 mmHg 8%
    11:00 +50°C° 0 mm 4 mps 739 mmHg 7%
    12:00 +51°C° 0 mm 4 mps 739 mmHg 6%
    13:00 +51°C° 0 mm 4 mps 739 mmHg 6%
    14:00 +52°C° 0 mm 4 mps 738 mmHg 6%
    15:00 +52°C° 0 mm 4 mps 738 mmHg 6%
    16:00 +50°C° 0 mm 4 mps 738 mmHg 8%
    17:00 +48°C° 0 mm 4 mps 738 mmHg 11%
    18:00 +45°C° 0 mm 4 mps 738 mmHg 13%
    19:00 +43°C° 0 mm 4 mps 738 mmHg 14%
    20:00 +42°C° 0 mm 4 mps 738 mmHg 16%
    21:00 +41°C° 0 mm 4 mps 739 mmHg 18%
    22:00 +39°C° 0 mm 3 mps 739 mmHg 18%
    23:00 +39°C° 0 mm 3 mps 739 mmHg 18%
    Show more